Theta_e
308 308 308 308 308 308 309 309 309 309 309 309 310 310 311 311 312 312 312 314 313 312 312 312 312 314 314 314 314 315 308 309 311 312 315 315 314 315 314 314 314 316 316 316 325
308 308 308 308 308 308 308 309 309 309 309 309 310 310 311 312 312 313 314 314 313 312 312 313 313 315 315 316 315 312 307 311 310 310 314 314 315 315 314 314 313 314 316 317 323
309 309 309 309 309 308 308 309 309 309 309 309 310 310 311 312 313 314 312 312 312 312 312 314 314 314 315 315 315 311 308 311 312 315 315 314 315 315 313 311 314 315 316 318 321
309 309 309 309 309 309 309 309 309 309 309 309 310 310 311 312 312 312 311 311 311 311 313 313 314 315 313 314 315 313 314 313 313 314 315 314 315 314 313 315 315 315 315 316 318
309 309 310 310 309 309 309 309 308 308 309 309 310 310 311 312 313 315 315 311 311 312 314 315 315 315 313 313 314 313 313 314 314 315 314 315 315 313 314 315 315 315 314 314 315
310 310 310 310 310 309 309 308 308 308 309 309 309 310 311 312 313 315 317 315 312 312 313 314 314 315 314 313 312 314 314 314 315 315 314 313 313 314 314 315 315 314 314 313 313
309 309 309 309 309 309 309 308 308 308 308 309 310 311 311 311 312 315 316 316 315 313 312 312 314 314 314 313 314 314 313 311 312 313 313 314 312 310 313 314 314 314 314 313 313
309 309 309 309 309 309 308 308 308 308 309 310 311 312 312 312 312 314 316 316 316 316 314 313 314 314 314 315 313 313 310 313 312 311 313 313 313 313 313 313 313 313 313 313 313
308 309 309 309 308 307 307 308 308 309 310 311 312 313 313 313 313 314 316 316 317 316 315 314 315 314 314 310 311 309 312 312 312 311 311 311 312 312 312 311 311 312 312 312 312
314 309 307 307 307 307 309 310 312 312 313 314 314 315 314 314 315 315 316 317 316 315 314 314 313 309 307 310 313 312 312 311 312 312 311 311 310 309 312 310 311 311 311 311 311
319 316 313 310 310 311 313 314 314 315 315 313 314 312 314 314 316 317 317 315 315 313 312 311 310 311 311 309 311 311 312 313 312 312 312 311 310 312 312 310 310 311 311 312 313
323 320 318 317 316 316 316 316 316 316 317 316 314 315 315 314 315 316 316 315 313 312 310 310 310 311 311 310 310 312 313 312 310 310 311 311 311 309 309 309 312 313 314 314 313
322 323 321 320 319 319 318 316 316 318 315 316 317 316 315 315 315 316 315 314 312 311 311 312 314 311 311 311 311 310 311 311 312 311 309 309 312 309 309 310 313 313 314 314 314
320 322 322 321 321 320 320 319 318 316 317 317 316 317 316 316 315 315 316 315 312 312 311 311 311 312 311 312 311 313 310 311 312 314 314 311 317 312 310 309 308 311 312 311 311
318 318 318 321 320 321 321 320 321 317 323 315 315 316 315 317 314 313 315 314 311 312 312 313 312 312 312 312 311 313 311 311 313 312 311 312 312 315 311 311 310 312 312 312 313
315 316 316 320 320 321 321 320 320 319 323 317 314 313 313 313 311 311 313 313 312 312 311 312 311 311 312 311 311 309 311 310 309 310 314 312 313 318 312 311 311 312 313 314 314
315 315 313 315 319 320 321 320 320 322 318 317 315 313 314 312 309 310 310 311 313 314 313 312 311 310 310 311 310 311 312 315 314 312 317 309 311 317 313 312 310 310 313 314 314
310 313 313 313 316 317 320 318 319 319 319 313 313 313 315 313 311 309 309 311 309 310 310 314 316 310 308 312 313 310 311 314 314 314 314 310 314 313 309 311 313 312 311 312 312
307 309 311 314 316 317 318 321 318 317 316 315 315 315 315 315 312 310 309 309 310 308 315 312 313 309 308 309 312 310 312 312 312 298 308 313 311 311 309 308 310 308 309 310 311
304 305 307 311 312 315 317 312 315 315 315 314 318 315 317 314 313 312 309 310 310 308 311 312 315 309 309 310 309 310 309 313 311 312 313 314 313 315 314 313 309 307 306 309 308
303 304 306 308 310 312 313 311 314 314 315 316 318 317 317 317 314 313 313 312 310 309 311 311 313 311 308 309 310 310 310 311 313 310 312 312 317 309 313 311 308 306 310 309 308
301 304 305 309 310 311 306 310 312 314 315 315 316 318 319 318 318 315 315 313 311 309 310 311 311 307 310 308 308 309 311 313 317 313 310 311 318 309 308 307 307 309 310 309 308
301 303 305 309 311 310 309 310 310 314 315 315 316 317 316 319 319 317 314 314 312 309 312 313 315 318 318 313 310 310 310 312 312 311 313 315 318 306 308 307 309 308 308 307 306
300 301 303 305 308 310 311 311 311 310 311 314 315 315 317 318 318 319 317 314 312 311 313 314 314 314 320 316 312 312 311 311 313 317 315 317 318 314 310 308 308 309 309 308 307
299 300 302 303 303 306 307 310 311 312 310 311 312 315 316 318 318 319 316 315 312 313 313 314 317 314 315 312 310 311 313 313 313 314 318 318 316 316 314 311 312 311 312 311 308
298 299 301 301 302 304 306 308 309 311 311 310 311 311 313 316 316 316 316 317 317 311 314 313 318 314 318 315 312 315 311 311 313 314 315 316 316 315 314 314 310 313 313 309 310
299 298 300 298 299 301 304 305 305 308 308 308 310 310 311 313 313 313 313 314 314 314 313 312 315 315 320 317 316 316 316 315 312 312 313 315 315 314 312 309 312 314 313 311 311
Wind_Speed
8 7 7 6 6 6 6 6 5 5 4 4 4 4 4 4 5 5 4 4 5 4 4 4 3 3 3 4 3 3 4 3 6 6 5 7 4 5 6 12 8 10 7 8 25
10 9 8 7 6 6 6 6 6 5 5 5 4 5 5 5 6 5 5 7 6 6 5 4 4 4 3 2 2 4 4 8 5 4 4 6 5 10 7 8 5 9 11 18 26
11 10 9 8 7 7 6 6 6 6 6 6 5 5 5 5 4 2 2 3 5 6 6 5 5 3 3 2 1 3 4 4 3 2 4 6 4 8 7 4 13 18 20 26 27
12 11 11 10 9 8 7 7 7 6 6 6 6 6 5 4 3 4 3 3 5 6 8 7 3 2 2 1 1 2 1 3 2 3 4 5 3 5 13 9 9 13 19 26 28
14 14 13 12 11 10 9 8 7 7 7 7 6 6 5 4 5 7 4 3 5 7 8 4 3 2 3 1 1 1 1 2 3 6 6 5 8 9 13 18 12 15 22 24 27
17 16 15 14 13 12 11 10 9 9 8 7 7 6 6 5 6 8 7 6 6 6 5 4 2 2 3 2 2 1 1 3 5 8 6 5 5 5 10 17 16 17 23 25 26
19 18 17 17 16 15 13 12 11 10 10 9 8 8 10 11 7 9 9 8 7 7 6 5 3 2 2 1 0 1 3 6 9 6 5 7 7 11 17 17 21 22 23 25 26
21 20 20 19 18 16 15 14 13 12 11 10 9 8 8 9 13 14 10 8 7 6 6 5 4 2 2 3 4 3 4 3 3 6 3 8 11 6 13 22 25 26 26 27 28
22 22 21 21 19 17 16 16 15 13 12 10 9 7 7 9 16 15 13 11 10 8 7 5 5 3 3 5 4 5 3 4 8 9 3 4 8 3 6 19 26 29 30 30 29
21 22 22 21 19 17 17 15 15 13 11 9 11 4 12 7 10 14 14 11 8 9 7 6 3 3 3 3 5 5 4 4 6 3 3 5 13 9 10 15 26 28 31 32 33
21 21 21 20 20 18 16 11 9 7 16 11 6 5 2 11 12 11 15 14 10 8 5 4 4 7 13 8 4 4 4 5 4 3 4 9 11 17 19 20 24 28 31 37 39
25 22 21 19 18 19 18 13 8 3 6 21 21 20 8 14 9 14 18 11 8 5 7 4 7 14 4 5 5 3 3 7 6 5 6 10 15 12 11 15 29 38 41 43 41
25 27 25 21 19 22 23 21 8 5 5 8 23 30 21 19 10 23 25 10 5 6 9 8 5 7 8 5 5 6 6 5 8 4 5 6 10 9 10 23 36 39 46 45 47
19 24 30 25 26 29 27 17 9 4 3 6 8 12 23 15 7 17 29 11 5 11 7 6 4 6 5 6 8 6 8 6 5 1 5 2 13 7 7 12 9 36 40 42 42
16 24 28 34 23 32 29 19 14 7 4 4 6 8 16 16 13 11 30 12 8 8 7 8 8 6 5 7 8 7 4 6 1 3 4 2 5 1 4 7 13 25 33 34 36
11 6 8 36 30 31 29 25 22 4 12 4 8 8 8 4 4 7 12 6 5 5 3 4 1 7 8 3 6 7 5 5 4 1 6 10 8 26 6 8 7 16 20 24 26
20 23 20 14 11 15 30 37 6 8 2 7 6 7 4 6 5 6 7 10 9 6 9 3 5 3 4 5 2 3 7 2 3 1 8 3 6 19 9 9 9 11 19 16 18
10 11 17 26 24 17 24 5 6 5 7 3 4 5 8 6 4 5 7 8 6 3 4 8 5 12 7 10 8 8 8 6 7 4 5 2 8 6 8 18 25 24 22 16 18
7 8 14 25 25 28 17 12 5 5 3 8 4 5 4 4 5 4 8 6 9 10 9 7 6 2 2 2 10 5 7 4 4 2 2 5 8 8 9 12 24 12 13 14 16
11 12 17 20 21 20 10 2 6 5 3 2 8 7 11 8 6 7 9 6 7 14 6 5 1 1 2 4 4 6 7 2 1 2 5 5 6 8 8 12 9 6 15 17 15
11 7 3 8 21 11 4 6 6 11 5 4 6 6 5 8 9 7 7 3 7 7 21 5 4 1 4 6 10 4 4 3 4 5 5 3 7 7 6 5 8 9 13 17 18
5 3 3 12 7 3 3 5 7 6 15 6 1 9 12 7 7 9 11 5 15 12 10 5 4 4 7 3 3 1 8 8 4 6 4 2 16 4 7 4 7 13 9 10 16
4 6 5 16 5 8 4 6 4 4 8 8 11 6 3 13 7 12 7 10 22 10 11 9 4 2 2 1 3 7 7 15 5 3 9 5 12 3 2 6 9 12 7 6 13
3 2 9 15 15 7 7 8 8 12 13 2 4 8 5 12 9 6 8 6 22 14 22 15 6 8 9 5 5 7 12 14 16 9 5 22 23 15 5 7 8 8 7 6 11
9 4 4 3 10 10 9 2 14 10 12 12 5 9 12 10 11 13 11 3 2 13 13 10 10 11 13 4 4 3 11 21 22 27 14 28 21 33 19 12 20 12 11 13 15
9 4 5 6 12 6 12 17 18 12 10 7 15 17 16 11 14 8 12 9 9 4 10 7 5 8 16 14 7 6 9 21 27 27 23 27 22 27 14 21 15 31 29 21 24
15 18 7 6 2 4 4 11 15 6 6 13 12 16 16 20 28 34 20 11 3 6 9 6 6 7 23 13 10 8 33 17 15 21 22 22 34 33 10 10 23 34 29 26 27
Wind_Direction
187 195 200 201 205 211 221 223 230 238 243 252 261 274 277 277 278 261 238 216 222 213 205 199 185 139 117 86 83 112 67 162 181 156 242 173 141 156 164 151 178 191 190 195 185
191 196 203 212 216 221 232 239 242 249 258 265 273 282 290 293 290 249 238 231 237 220 192 176 157 139 93 82 68 84 105 205 194 193 224 185 176 171 165 162 195 190 192 177 186
203 206 211 212 218 231 238 244 253 258 267 272 278 285 292 302 290 238 232 222 204 189 171 159 147 122 78 66 53 135 167 200 205 188 218 187 216 189 170 227 207 199 186 183 189
215 218 220 224 227 230 237 250 258 266 270 274 278 283 287 285 192 163 127 140 160 168 162 152 149 95 81 83 91 101 223 178 185 190 173 185 193 214 204 229 234 218 202 192 196
226 228 229 231 234 237 241 244 251 263 268 276 280 281 283 254 236 188 170 150 144 143 152 153 151 123 143 172 105 147 260 216 211 222 236 211 224 224 231 233 232 209 202 203 204
235 235 238 238 238 240 243 248 251 252 257 264 272 274 266 248 232 215 209 199 190 181 182 179 158 135 131 147 166 177 227 269 246 237 242 208 242 210 236 225 218 206 204 208 211
239 241 240 242 243 244 243 246 249 251 254 256 259 263 258 251 230 217 212 209 208 206 211 208 194 193 151 98 31 18 319 325 252 240 228 207 284 234 233 213 211 208 211 213 216
243 242 245 243 245 245 247 247 248 249 250 252 255 259 255 237 227 216 199 194 203 211 216 216 214 186 156 129 26 37 52 345 294 158 246 162 271 265 237 211 213 217 217 221 223
244 243 243 245 244 246 247 248 249 247 248 249 252 243 257 234 224 217 215 216 215 217 208 204 178 142 130 88 7 8 240 213 310 203 132 170 263 278 224 212 225 223 225 227 230
246 244 242 242 242 242 245 245 249 249 241 240 240 252 232 223 213 209 206 203 192 188 167 175 136 82 45 116 227 208 223 243 242 211 174 220 263 263 254 228 236 237 233 233 233
243 241 241 240 238 236 234 235 245 241 220 208 211 209 229 197 179 181 185 174 164 166 159 150 124 197 210 200 161 152 198 241 247 244 179 234 241 258 246 233 242 244 240 238 237
241 239 234 234 231 228 222 205 211 228 275 235 237 222 210 185 177 186 177 171 170 168 120 67 225 223 157 174 197 210 241 260 290 234 193 267 258 249 225 232 241 243 244 242 240
242 234 234 228 223 226 224 219 238 242 274 252 226 226 214 204 209 193 184 185 158 145 190 178 206 168 160 160 171 223 208 232 228 323 248 299 265 231 245 235 248 250 253 252 246
248 243 229 224 223 223 225 209 213 172 284 245 215 225 210 201 238 207 196 180 181 194 169 239 246 140 164 193 164 236 209 203 242 328 258 9 293 200 228 240 237 250 248 247 244
239 236 248 217 218 212 221 206 195 158 255 205 162 181 173 176 147 187 189 198 168 173 145 233 169 170 179 196 163 226 138 178 175 203 331 205 283 262 186 248 248 250 253 251 253
233 260 253 233 227 223 216 201 178 161 225 197 146 169 141 168 135 116 176 173 166 140 256 231 217 163 194 133 162 147 88 59 58 55 268 190 185 285 170 213 251 260 260 262 258
248 248 275 251 231 203 189 171 202 199 178 205 183 166 158 157 153 155 165 182 171 151 218 157 211 181 158 100 60 121 101 312 319 349 250 351 219 253 306 281 237 257 270 270 255
261 239 234 247 243 256 209 243 196 187 198 83 110 107 181 150 194 150 138 181 243 130 132 176 267 172 192 184 183 189 159 161 224 216 272 328 241 247 233 262 268 273 275 264 244
312 267 240 227 227 229 204 213 215 173 216 134 67 113 222 207 141 133 189 200 202 184 182 165 262 163 163 115 151 194 205 171 84 82 351 224 289 291 267 274 267 266 267 260 241
294 294 258 244 255 217 230 226 216 213 177 228 178 174 182 188 159 179 171 196 202 195 191 196 255 50 158 102 29 158 161 88 34 230 257 274 267 236 275 268 303 254 239 240 229
277 293 252 204 222 237 248 206 227 232 195 208 237 165 183 179 179 196 203 240 201 191 196 144 153 338 126 205 171 142 178 181 140 156 195 301 258 216 232 267 287 293 283 247 228
237 242 217 186 192 195 199 201 196 211 217 239 165 239 196 179 193 200 203 238 180 141 166 199 122 172 205 270 209 92 190 170 165 222 240 151 264 180 228 271 296 305 304 253 235
240 248 216 197 224 202 201 220 244 223 198 177 235 183 257 204 201 212 199 217 168 156 161 166 181 164 226 40 328 210 206 201 118 90 218 176 255 23 290 289 279 285 299 239 222
252 276 229 219 249 228 207 232 223 229 261 236 239 194 183 244 209 202 217 203 193 190 178 153 167 195 224 178 139 186 196 199 199 213 163 231 262 256 313 300 294 278 299 265 232
205 239 232 224 247 251 268 244 223 231 213 223 251 235 214 228 233 232 232 149 189 226 172 172 207 203 232 156 149 222 204 205 207 218 204 249 234 256 241 242 251 265 254 251 240
194 201 218 268 297 244 234 242 249 240 227 217 230 237 244 243 219 233 215 194 202 194 201 187 230 172 249 223 193 225 227 218 215 223 227 246 251 257 206 240 250 256 263 248 246
233 221 224 242 226 229 226 242 254 237 236 273 250 235 237 241 248 257 259 241 224 204 199 192 187 193 249 222 210 230 237 214 224 227 220 233 240 261 229 224 242 252 253 255 258